Regional Weather Roundup
Issued by NWS Upton, NY

Current Version | Previous Version | Text Only | Print | Product List | Glossary On
Versions: 1 2 3 4 5 6 7 8 9 10 11 12 13 14 15 16 17 18 19 20 21 22 23 24 25 26 27 28 29 30 31 32 33 34 35 36 37 38 39 40 41 42 43 44 45 46 47 48 49 50
438
ASUS41 KOKX 301304
RWROKX

REGIONAL WEATHER ROUNDUP
NATIONAL WEATHER SERVICE NEW YORK NY
900 AM EDT SAT JUL 30 2016

NOTE: "FAIR" INDICATES FEW OR NO CLOUDS BELOW 12,000 FEET WITH NO
SIGNIFICANT WEATHER AND/OR OBSTRUCTIONS TO VISIBILITY.

NYZ071-072-176-178-NJZ106-104-301400-
NEW YORK CITY METRO AREA

CITY           SKY/WX    TMP DP  RH WIND       PRES   REMARKS
Central Park   CLOUDY    78  70  76 NE5       30.04R HAZE
LaGuardia APRT CLOUDY    77  70  79 NE9       30.01R
Kennedy INTL   PTSUNNY   80  71  74 NE3       30.01R
Newark/Liberty PTSUNNY   79  71  76 NE7       30.00R
Bronx Bot Gard   N/A     75  68  78 S8        30.02S
Wall St Helipt PTSUNNY   77  72  83 NE8       30.01R
Teterboro      CLOUDY    76  68  76 N5        30.00R
$$

NYZ177-179-078>081-301400-
LONG ISLAND NEW YORK

CITY           SKY/WX    TMP DP  RH WIND       PRES   REMARKS
Farmingdale    MOSUNNY   79  71  76 NE5       30.01R
MacArthur/ISP  MOSUNNY   79  71  76 E5        30.00S
Shirley        MOSUNNY   77  70  79 CALM      30.02R
Riverhead      NOT AVBL
Westhampton    SUNNY     78  70  76 NW3       30.02R
Southhampton     N/A     79  72  78 N2        29.97R
Bridgehampton    N/A     75  72  88 CALM      30.00R
East Hampton   FAIR      76  71  84 CALM      30.00S
Montauk          N/A     74  70  87 N5        30.02R
$$

NYZ052-065-067-301400-
HUDSON VALLEY

CITY           SKY/WX    TMP DP  RH WIND       PRES   REMARKS
White Plains   CLOUDY    74  65  73 NE6       30.03R
Newburgh       PTSUNNY   72  63  73 E12       30.04S
Montgomery     CLOUDY    72  63  73 N6        30.03S
Poughkeepsie   CLOUDY    74  62  66 N7        30.03R
Albany         CLOUDY    69  61  75 N6        30.06R
$$

NJZ001-105-106-008-010-013-015-019>022-104-301400-
NEW JERSEY

CITY           SKY/WX    TMP DP  RH WIND       PRES   REMARKS
Newark/Liberty PTSUNNY   79  71  76 NE7       30.00R
Teterboro      CLOUDY    76  68  76 N5        30.00R
Caldwell       CLOUDY    74  67  78 N3        30.02R
Morristown     PTSUNNY   75  66  73 NE5       30.02R
Somerville     SUNNY     79  69  71 VRB3      29.98S
Linden         FAIR      80  69  69 CALM      30.02R
Sussex         CLOUDY    70  66  87 N5        30.03S
Abdover          N/A     69  65  86 NE7       30.03S
Trenton        CLOUDY    77  72  84 SW3       30.00R
Millville      CLOUDY    80  74  81 SW5       30.01R
Atlantic City  SUNNY     80  71  74 SW5       30.01
Wrightstown    PTSUNNY   75  73  94 VRB2      29.98S
Toms River     CLOUDY    77  73  87 SW7       30.02S
Belmar         SUNNY     78  73  84 SW3       30.02R
$$

PAZ047>061-062-071-301400-
EASTERN PENNSYLVANIA

CITY           SKY/WX    TMP DP  RH WIND       PRES   REMARKS
Philadelphia   PTSUNNY   79  73  82 S6        30.00S
Allentown      CLOUDY    78  69  73 E8        30.01R
Scranton       SUNNY     77  64  64 NE6       30.02R
$$

CTZ002-004>006-009-010-012-RIZ004-006-007-MAZ004-011-015-301400-
SOUTHERN NEW ENGLAND
 IN CT

CITY           SKY/WX    TMP DP  RH WIND       PRES   REMARKS
Bradley INTL   PTSUNNY   75  59  57 N8        30.04R
Hartford       SUNNY     77  62  59 N7        30.03R
Danbury        CLOUDY    73  62  68 NE7       30.05R
Wtrbury/Oxford NOT AVBL
Bridgeport     SUNNY     77  64  64 N10       30.01R
Meriden        SUNNY     78  61  55 N7        30.03R
New Haven      MOSUNNY   75  66  73 N8        30.01R
Chester        FAIR      75  66  73 VRB5      30.03R
Groton         SUNNY     79  67  66 N7        30.00R
Wilimantic     SUNNY     77  64  64 N6        30.03R

 IN RI

CITY           SKY/WX    TMP DP  RH WIND       PRES   REMARKS
Providence     MOSUNNY   77  61  57 N10       30.02R
Block Island   SUNNY     74  69  85 N8        30.02R
Westerly       SUNNY     77  65  66 VRB6      30.01S
 IN MA

CITY           SKY/WX    TMP DP  RH WIND       PRES   REMARKS
Boston         MOSUNNY   78  59  51 NE9       30.01S
Worchester     SUNNY     71  55  56 VRB6      30.06R
Westfield      SUNNY     73  60  63 NE8       30.04R
Provincetown   SUNNY     72  67  84 N12       30.01S
Nantucket      MOSUNNY   74  68  81 N7        30.00R
$$

ANZ330-335-338-340-345-350-353-355-301400-
COASTAL MARINE OBSERVATIONS


STATION/POSITION TIME  SKY/WX   TEMP    WIND        PRES    VSBY  WAVE
                                AIR SEA DIR/SP/G                  HT/PER
                 (UTC)          (F)     (DEG/KT/KT) (MB)    (MI)  (FT/S)
NY HARB ENTRANCE 1250            74 73  260/  2/  2 1015.8          2/ 6
20S FIRE ISLAND  1150            75 74   CALM  /  2 1015.3          3/ 6
GREAT SOUTH BAY  1200            78 81   CALM  /  2   N/A
23 SSW MONTAUK P 1150            73 71  300/  2/  2 1015.9          2/ 6
15 E BARNEGAT LI 1230               78                N/A           2/ 6
HUDSON CANYON    1150            77 77              1015.4          2/ 5
KINGS POINT      1200            75 73              1015.6
EXECUTION ROCKS  1200            73      50/  8/ 10   N/A
CENTRAL LI SOUND 1230            72 74   50/  8/ 10   N/A           0
EASTERN LI SOUND 1200            76 68   10/  4/  6   N/A
ROBBINS REEF     1206            76     320/  2/  3 1015.1
$$


>>>>>>>>>>>>>>>>>>>>>>>>>>>> KEY <<<<<<<<<<<<<<<<<<<<<<<<<<<
>                                                          <
>     SKY/WX - Sky Condition/Present Weather               <
>     TMP    - Temperature in Fahrenheit                   <
>     DP     - Dew Point in Fahrenheit                     <
>     RH     - Relative Humidity in Percent                <
>     WIND   - Direction (from) and Speed in MPH           <
>     PRES   - Mean Sea Level Pressure (inches of Hg)      <
>     WCI    - Wind Chill Index                            <
>     VSB    - VISIBILITY IN MILES                         <
>     HX     - HEAT INDEX                                  <
>     TC     - TEMPERATURE IN CELSIUS                      <
>     VRB    - VARIABLE WIND DIRECTION                     <
>                                                          <
>>>>>>>>>>>>>>>>>>>>>>>>>>>> KEY <<<<<<<<<<<<<<<<<<<<<<<<<<<




USA.gov is the U.S. government's official web portal to all federal, state and local government web resources and services.